Data for 01/30/2017

Time Sea-Level Adjusted Pressure Absolute Pressure Temperature Relative Humidity Dew Point   
(mb) (inHg) (mb) (inHg) (C) (F) (%) (C) (F)
00:05 1024 30.24 853 25.19 3.3 37.9 37 -10 14
00:10 1024 30.24 853 25.19 3.4 38.1 36 -10.3 13.4
00:15 1023 30.21 853 25.19 3.6 38.5 37 -9.7 14.6
00:20 1023 30.21 853 25.19 3.6 38.4 37 -9.7 14.6
00:25 1023 30.21 853 25.19 3.5 38.4 37 -9.9 14.2
00:30 1024 30.24 853 25.19 3.5 38.3 37 -10 14
00:35 1023 30.21 853 25.19 3.4 38.1 38 -9.7 14.6
00:40 1023 30.21 852 25.16 3.3 37.9 38 -9.9 14.2
00:45 1023 30.21 852 25.16 3.2 37.8 38 -9.9 14.1
00:50 1023 30.21 852 25.16 3.2 37.8 38 -9.9 14.1
00:55 1023 30.21 852 25.16 3.3 38 37 -9.9 14.1
01:00 1023 30.21 852 25.16 3.4 38 37 -10.1 13.8
01:05 1023 30.21 852 25.16 3.7 38.6 36 -10.1 13.7
01:10 1023 30.21 852 25.16 3.8 38.8 35 -10.2 13.6
01:15 1022 30.18 852 25.16 4.4 40 30 -11.6 11.1
01:20 1022 30.18 851 25.13 5.5 41.9 28 -11.6 11.2
01:25 1022 30.18 851 25.13 6.1 42.9 26 -12.1 10.2
01:30 1022 30.18 851 25.13 6.4 43.5 25 -12.1 10.3
01:35 1022 30.18 851 25.13 6.2 43.1 28 -10.9 12.3
01:40 1022 30.18 851 25.13 5.6 42.1 27 -11.8 10.8
01:45 1022 30.18 851 25.13 5.9 42.6 26 -12 10.3
01:50 1022 30.18 851 25.13 5.8 42.5 28 -11.3 11.7
01:55 1022 30.18 851 25.13 5.3 41.6 30 -11 12.2
02:00 1022 30.18 851 25.13 5 41.1 29 -11.4 11.5
02:05 1022 30.18 851 25.13 5.1 41.2 30 -11 12.1
02:10 1022 30.18 851 25.13 5.1 41.2 30 -11.2 11.9
02:15 1022 30.18 851 25.13 4.8 40.7 32 -10.6 12.9
02:20 1022 30.18 851 25.13 4.5 40.2 33 -10.5 13.2
02:25 1022 30.18 851 25.13 4.1 39.3 33 -10.7 12.7
02:30 1022 30.18 851 25.13 3.5 38.4 36 -10.3 13.4
02:35 1022 30.18 851 25.13 3.1 37.6 35 -10.8 12.6
02:40 1022 30.18 851 25.13 3.4 38.1 32 -11.8 10.7
02:45 1022 30.18 852 25.16 4.4 39.9 29 -12.2 10.1
02:50 1022 30.18 852 25.16 4.6 40.3 31 -11.2 11.8
02:55 1022 30.18 851 25.13 4.4 40 31 -11.1 11.9
03:00 1022 30.18 851 25.13 4.2 39.6 32 -11.2 11.8
03:05 1022 30.18 851 25.13 4.1 39.4 32 -11.1 12
03:10 1022 30.18 851 25.13 3.9 39.1 33 -11 12.2
03:15 1022 30.18 851 25.13 3.7 38.7 32 -11.4 11.4
03:20 1022 30.18 851 25.13 3.6 38.4 33 -11.4 11.5
03:25 1022 30.18 851 25.13 3.4 38.1 33 -11.3 11.7
03:30 1022 30.18 851 25.13 3.1 37.6 33 -11.6 11.1
03:35 1022 30.18 851 25.13 3 37.4 33 -11.7 10.9
03:40 1022 30.18 851 25.13 3 37.4 33 -11.6 11.1
03:45 1022 30.18 851 25.13 3 37.4 33 -11.9 10.6
03:50 1022 30.18 851 25.13 3 37.4 33 -11.9 10.6
03:55 1022 30.18 851 25.13 3 37.3 33 -11.9 10.5
04:00 1022 30.18 851 25.13 2.9 37.1 33 -11.8 10.8
04:05 1022 30.18 851 25.13 2.8 37 33 -12 10.4
04:10 1022 30.18 851 25.13 2.8 37 32 -12.2 10
04:15 1022 30.18 851 25.13 3 37.3 31 -12.7 9.1
04:20 1022 30.18 851 25.13 3.3 37.9 31 -12.3 9.9
04:25 1022 30.18 851 25.13 3.2 37.7 31 -12.3 9.9
04:30 1022 30.18 851 25.13 3.1 37.6 31 -12.5 9.5
04:35 1022 30.18 851 25.13 3.1 37.6 32 -12.2 10
04:40 1022 30.18 851 25.13 3 37.4 31 -12.7 9.1
04:45 1021 30.15 851 25.13 3 37.4 30 -12.8 9
04:50 1021 30.15 851 25.13 3 37.5 31 -12.7 9.1
04:55 1021 30.15 850 25.1 3 37.4 31 -12.7 9.2
05:00 1021 30.15 850 25.1 2.9 37.2 31 -12.7 9.1
05:05 1021 30.15 850 25.1 2.7 36.8 31 -12.7 9.1
05:10 1021 30.15 851 25.13 2.7 36.8 31 -13 8.6
05:15 1021 30.15 851 25.13 2.9 37.2 30 -13.1 8.5
05:20 1021 30.15 850 25.1 2.8 37.1 31 -12.7 9.1
05:25 1021 30.15 850 25.1 2.6 36.6 31 -13 8.6
05:30 1021 30.15 850 25.1 2.6 36.7 31 -12.8 8.9
05:35 1021 30.15 850 25.1 2.7 36.8 31 -12.8 8.9
05:40 1021 30.15 850 25.1 2.4 36.2 30 -13.3 8
05:45 1021 30.15 850 25.1 2.4 36.4 31 -13.2 8.2
05:50 1021 30.15 850 25.1 2.5 36.5 32 -12.6 9.2
05:55 1021 30.15 850 25.1 2.5 36.5 30 -13.5 7.7
06:00 1021 30.15 850 25.1 2.6 36.7 30 -13.2 8.2
06:05 1021 30.15 850 25.1 2.5 36.4 30 -13.3 8
06:10 1021 30.15 850 25.1 2.4 36.3 30 -13.3 8
06:15 1021 30.15 850 25.1 2.2 35.9 31 -13.1 8.4
06:20 1021 30.15 851 25.13 2 35.5 32 -13 8.7
06:25 1021 30.15 851 25.13 1.8 35.2 31 -13.5 7.7
06:30 1021 30.15 850 25.1 2.1 35.9 30 -13.8 7.2
06:35 1021 30.15 851 25.13 2.2 35.9 31 -13.4 8
06:40 1021 30.15 850 25.1 2 35.6 30 -13.7 7.3
06:45 1021 30.15 851 25.13 1.8 35.3 31 -13.4 7.8
06:50 1021 30.15 851 25.13 1.9 35.5 29 -14.4 6
06:55 1021 30.15 851 25.13 2.2 36 30 -13.8 7.2
07:00 1021 30.15 851 25.13 2.1 35.8 30 -13.9 6.9
07:05 1022 30.18 851 25.13 2.1 35.8 30 -13.7 7.3
07:10 1022 30.18 851 25.13 1.8 35.2 31 -13.7 7.3
07:15 1022 30.18 851 25.13 1.4 34.5 32 -13.6 7.5
07:20 1022 30.18 851 25.13 1.1 34 32 -13.8 7.2
07:25 1022 30.18 851 25.13 0.9 33.5 34 -13.3 8
07:30 1022 30.18 851 25.13 0.2 32.4 37 -12.8 8.9
07:35 1022 30.18 851 25.13 -0.3 31.5 35 -13.9 6.9
07:40 1022 30.18 851 25.13 -0.2 31.6 37 -13.3 8
07:45 1022 30.18 851 25.13 -0.7 30.7 38 -13.2 8.3
07:50 1022 30.18 851 25.13 -0.9 30.3 37 -14 6.8
07:55 1022 30.18 851 25.13 -0.9 30.4 37 -14 6.8
08:00 1022 30.18 851 25.13 -0.9 30.3 37 -13.9 7
08:05 1022 30.18 851 25.13 -0.8 30.5 38 -13.4 7.9
08:10 1022 30.18 851 25.13 -0.9 30.4 36 -14.1 6.6
08:15 1022 30.18 851 25.13 -0.7 30.8 39 -13 8.5
08:20 1022 30.18 851 25.13 -0.7 30.8 34 -14.8 5.4
08:25 1022 30.18 851 25.13 -0.4 31.3 36 -13.7 7.4
08:30 1022 30.18 851 25.13 -0.6 30.9 37 -13.4 7.8
08:35 1022 30.18 851 25.13 -0.5 31.1 39 -12.9 8.8
08:40 1022 30.18 851 25.13 -0.3 31.5 36 -13.5 7.8
08:45 1022 30.18 851 25.13 -0.4 31.3 35 -13.9 6.9
08:50 1022 30.18 851 25.13 -0.6 30.9 36 -13.8 7.2
08:55 1022 30.18 851 25.13 -0.5 31.2 35 -14.3 6.2
09:00 1022 30.18 851 25.13 -0.1 31.8 32 -14.8 5.4
09:05 1022 30.18 851 25.13 0.4 32.7 32 -14.5 5.9
09:10 1022 30.18 851 25.13 0.6 33 33 -14.1 6.6
09:15 1022 30.18 851 25.13 0.5 33 32 -14.5 6
09:20 1022 30.18 851 25.13 0.5 33 31 -14.6 5.7
09:25 1022 30.18 851 25.13 0.9 33.5 31 -14.6 5.8
09:30 1022 30.18 851 25.13 1 33.8 31 -14.5 5.9
09:35 1022 30.18 851 25.13 1.3 34.3 30 -14.5 5.8
09:40 1022 30.18 851 25.13 1.6 34.8 30 -14.1 6.7
09:45 1022 30.18 851 25.13 1.6 35 30 -14 6.8
09:50 1021 30.15 851 25.13 1.4 34.6 31 -13.8 7.2
09:55 1021 30.15 851 25.13 1.1 34.1 31 -14.2 6.4
10:00 1021 30.15 851 25.13 1.4 34.5 30 -14.3 6.3
10:05 1022 30.18 851 25.13 1.9 35.4 29 -14.3 6.3
10:10 1022 30.18 851 25.13 2.7 36.8 28 -14.2 6.5
10:15 1022 30.18 851 25.13 2.7 36.8 28 -14.2 6.4
10:20 1021 30.15 851 25.13 2.6 36.7 28 -13.9 6.9
10:25 1021 30.15 851 25.13 3.2 37.8 27 -13.9 7
10:30 1021 30.15 851 25.13 2.9 37.3 28 -13.8 7.2
10:35 1021 30.15 851 25.13 3 37.4 28 -13.8 7.1
10:40 1021 30.15 851 25.13 3.4 38.1 28 -13.6 7.6
10:45 1021 30.15 851 25.13 3.1 37.6 28 -13.6 7.4
10:50 1021 30.15 851 25.13 3.3 37.9 27 -13.8 7.1
10:55 1021 30.15 851 25.13 3.1 37.6 28 -13.6 7.5
11:00 1021 30.15 851 25.13 2.9 37.2 30 -12.9 8.7
11:05 1021 30.15 851 25.13 2.4 36.3 32 -12.7 9.2
11:10 1021 30.15 851 25.13 2.4 36.3 29 -13.8 7.2
11:15 1021 30.15 851 25.13 3 37.3 30 -12.8 8.9
11:20 1022 30.18 851 25.13 3.4 38.1 30 -12.5 9.6
11:25 1022 30.18 851 25.13 4.1 39.4 26 -13.6 7.5
11:30 1022 30.18 851 25.13 4.7 40.5 26 -13.4 7.8
11:35 1022 30.18 851 25.13 5.3 41.6 25 -13.4 7.8
11:40 1021 30.15 851 25.13 5.3 41.5 25 -13.4 7.8
11:45 1021 30.15 851 25.13 5 40.9 25 -13.6 7.6
11:50 1021 30.15 851 25.13 5.2 41.4 23 -14.3 6.3
11:55 1021 30.15 851 25.13 5 40.9 24 -14.3 6.3
12:00 1021 30.15 850 25.1 4.8 40.7 25 -13.7 7.3
12:05 1021 30.15 850 25.1 5.2 41.3 24 -13.9 6.9
12:10 1021 30.15 850 25.1 5.9 42.6 21 -14.9 5.3
12:15 1021 30.15 850 25.1 6.1 43 22 -14.4 6.2
12:20 1021 30.15 850 25.1 6.7 44.1 22 -13.7 7.3
12:25 1021 30.15 850 25.1 6.9 44.5 21 -14.2 6.4
12:30 1021 30.15 850 25.1 7.1 44.8 21 -14 6.9
12:35 1021 30.15 850 25.1 7.6 45.6 21 -13.6 7.6
12:40 1021 30.15 850 25.1 7.6 45.6 21 -13.4 8
12:45 1021 30.15 850 25.1 7.3 45.1 22 -13.1 8.4
12:50 1021 30.15 850 25.1 7.1 44.9 22 -13.4 7.9
12:55 1021 30.15 850 25.1 7.6 45.7 21 -13.2 8.2
13:00 1021 30.15 850 25.1 7.4 45.3 23 -12.6 9.4
13:05 1021 30.15 850 25.1 7.5 45.5 22 -13.1 8.4
13:10 1021 30.15 850 25.1 7.6 45.7 23 -12.4 9.7
13:15 1020 30.12 850 25.1 7.9 46.3 22 -12.6 9.3
13:20 1020 30.12 850 25.1 8.2 46.8 21 -12.6 9.3
13:25 1020 30.12 849 25.07 8.3 47 21 -13 8.6
13:30 1020 30.12 849 25.07 8.7 47.7 20 -12.8 8.9
13:35 1020 30.12 849 25.07 8.4 47.1 21 -12.5 9.5
13:40 1020 30.12 849 25.07 8.2 46.7 21 -13 8.6
13:45 1020 30.12 849 25.07 8.3 46.9 22 -12.4 9.6
13:50 1020 30.12 849 25.07 8.9 48 20 -13 8.6
13:55 1020 30.12 849 25.07 8.8 47.8 20 -13.1 8.4
14:00 1020 30.12 849 25.07 8.6 47.6 21 -12.8 8.9
14:05 1020 30.12 849 25.07 8.8 47.9 21 -12.5 9.5
14:10 1020 30.12 849 25.07 8.9 48 21 -12.2 10.1
14:15 1019 30.09 849 25.07 8.4 47.2 22 -11.9 10.6
14:20 1019 30.09 849 25.07 7.9 46.3 25 -11.1 12.1
14:25 1020 30.12 849 25.07 7.8 46 24 -11.4 11.4
14:30 1019 30.09 849 25.07 7.8 46.1 25 -11.2 11.9
14:35 1019 30.09 849 25.07 7.4 45.3 26 -10.8 12.6
14:40 1019 30.09 848 25.04 6.9 44.3 26 -11.5 11.3
14:45 1019 30.09 848 25.04 7.1 44.8 26 -11.3 11.7
14:50 1019 30.09 848 25.04 7 44.6 25 -11.9 10.6
14:55 1019 30.09 848 25.04 7.1 44.9 24 -12.1 10.2
15:00 1019 30.09 848 25.04 7.2 45 25 -11.8 10.8
15:05 1019 30.09 848 25.04 6.8 44.3 24 -12.4 9.7
15:10 1019 30.09 848 25.04 7.5 45.5 23 -12.6 9.4
15:15 1019 30.09 848 25.04 8.3 47 22 -11.9 10.5
15:20 1019 30.09 848 25.04 8.5 47.3 21 -12.4 9.7
15:25 1018 30.06 848 25.04 8.5 47.3 22 -12.1 10.3
15:30 1018 30.06 848 25.04 9.1 48.3 22 -11.4 11.6
15:35 1018 30.06 848 25.04 9.3 48.7 22 -11.4 11.5
15:40 1018 30.06 848 25.04 9.2 48.5 20 -12.4 9.7
15:45 1018 30.06 847 25.01 8.7 47.6 22 -12 10.4
15:50 1018 30.06 847 25.01 8.8 47.8 22 -12 10.3
15:55 1018 30.06 847 25.01 8.7 47.6 22 -12.1 10.2
16:00 1018 30.06 847 25.01 7.9 46.3 24 -11.6 11.1
16:05 1018 30.06 847 25.01 8.2 46.7 23 -11.7 10.9
16:10 1018 30.06 847 25.01 8.3 47 23 -11.6 11.1
16:15 1018 30.06 847 25.01 8.3 47 23 -11.4 11.5
16:20 1018 30.06 847 25.01 8.4 47.2 23 -11.4 11.4
16:25 1018 30.06 847 25.01 8.3 47 23 -11.7 11
16:30 1018 30.06 847 25.01 8.6 47.5 22 -12.2 10
16:35 1018 30.06 847 25.01 9 48.2 22 -11.7 10.9
16:40 1018 30.06 847 25.01 9.2 48.5 21 -12 10.4
16:45 1018 30.06 847 25.01 9.4 49 22 -11.4 11.5
16:50 1018 30.06 847 25.01 9.4 48.9 23 -10.6 13
16:55 1018 30.06 847 25.01 9.1 48.5 23 -11.1 12.1
17:00 1018 30.06 847 25.01 8.8 47.9 24 -10.5 13.2
17:05 1018 30.06 847 25.01 8.4 47.1 24 -11 12.2
17:10 1018 30.06 847 25.01 8.4 47 24 -11.1 12
17:15 1018 30.06 847 25.01 8.2 46.8 25 -10.9 12.5
17:20 1018 30.06 847 25.01 7.9 46.2 25 -11 12.1
17:25 1018 30.06 847 25.01 7.3 45.2 27 -10.5 13.1
17:30 1018 30.06 847 25.01 7.1 44.9 27 -10.4 13.2
17:35 1018 30.06 847 25.01 7 44.6 28 -10.4 13.2
17:40 1018 30.06 847 25.01 6.9 44.4 27 -11 12.2
17:45 1018 30.06 847 25.01 6.9 44.5 27 -10.7 12.7
17:50 1018 30.06 847 25.01 6.8 44.2 27 -11.2 11.9
17:55 1018 30.06 847 25.01 6.8 44.2 27 -10.8 12.6
18:00 1018 30.06 847 25.01 6.8 44.2 28 -10.6 12.9
18:05 1018 30.06 847 25.01 6.6 43.8 26 -11.4 11.4
18:10 1018 30.06 847 25.01 6.7 44.1 27 -11.1 12.1
18:15 1018 30.06 847 25.01 6.6 44 27 -11 12.2
18:20 1018 30.06 847 25.01 6.7 44.1 27 -11.1 12.1
18:25 1018 30.06 847 25.01 6.6 43.8 29 -10.5 13.1
18:30 1018 30.06 847 25.01 6.1 43 31 -9.9 14.2
18:35 1018 30.06 847 25.01 5.8 42.5 29 -10.8 12.6
18:40 1018 30.06 847 25.01 6 42.8 28 -11.1 12
18:45 1018 30.06 847 25.01 6 42.7 30 -10.5 13.2
18:50 1018 30.06 847 25.01 5.8 42.5 29 -10.7 12.7
18:55 1018 30.06 847 25.01 6 42.7 28 -11.2 11.8
19:00 1017 30.03 847 25.01 6.1 43 28 -10.9 12.4
19:05 1017 30.03 847 25.01 5.9 42.7 28 -11.1 11.9
19:10 1018 30.06 847 25.01 6 42.7 29 -10.6 12.8
19:15 1018 30.06 847 25.01 5.7 42.3 30 -10.4 13.3
19:20 1018 30.06 847 25.01 5.5 41.8 30 -10.7 12.7
19:25 1018 30.06 847 25.01 5.5 41.9 29 -11.1 12.1
19:30 1018 30.06 847 25.01 5.7 42.2 29 -11.2 11.8
19:35 1018 30.06 847 25.01 5.7 42.2 30 -10.6 12.9
19:40 1018 30.06 847 25.01 5.5 41.9 31 -10.4 13.3
19:45 1018 30.06 847 25.01 5.4 41.7 29 -11.1 12
19:50 1018 30.06 847 25.01 5.5 41.9 31 -10.4 13.3
19:55 1018 30.06 847 25.01 5.5 41.8 30 -11 12.3
20:00 1018 30.06 847 25.01 5.4 41.7 30 -10.9 12.4
20:05 1018 30.06 847 25.01 5.3 41.5 35 -9.1 15.6
20:10 1018 30.06 847 25.01 5 41 32 -10.2 13.6
20:15 1018 30.06 847 25.01 5 41 33 -10 13.9
20:20 1017 30.03 847 25.01 5 41.1 32 -10.5 13.2
20:25 1018 30.06 847 25.01 5.1 41.2 33 -10 13.9
20:30 1017 30.03 847 25.01 5 41 34 -9.6 14.7
20:35 1017 30.03 847 25.01 4.9 40.9 31 -10.7 12.8
20:40 1017 30.03 847 25.01 5 41 33 -10.2 13.7
20:45 1017 30.03 846 24.98 5 41 32 -10.2 13.6
20:50 1017 30.03 846 24.98 5 40.9 32 -10.5 13
20:55 1017 30.03 846 24.98 4.9 40.9 34 -9.7 14.5
21:00 1017 30.03 846 24.98 4.8 40.6 32 -10.6 13
21:05 1017 30.03 846 24.98 4.9 40.8 32 -10.4 13.3
21:10 1017 30.03 846 24.98 4.9 40.8 32 -10.7 12.8
21:15 1017 30.03 846 24.98 4.7 40.4 32 -10.7 12.7
21:20 1017 30.03 846 24.98 4.4 39.8 32 -10.8 12.6
21:25 1017 30.03 846 24.98 4.3 39.7 33 -10.7 12.7
21:30 1017 30.03 846 24.98 4.3 39.7 33 -10.5 13.1
21:35 1017 30.03 846 24.98 4.5 40.1 35 -9.8 14.4
21:40 1016 30 846 24.98 4.4 40 33 -10.5 13.1
21:45 1016 30 846 24.98 4.4 39.9 34 -10.3 13.4
21:50 1016 30 846 24.98 4.3 39.8 35 -9.7 14.6
21:55 1016 30 846 24.98 4.2 39.5 35 -10.1 13.9
22:00 1016 30 846 24.98 4.1 39.4 34 -10.3 13.4
22:05 1016 30 846 24.98 4.1 39.3 33 -10.7 12.8
22:10 1016 30 846 24.98 4.2 39.5 36 -9.7 14.5
22:15 1016 30 846 24.98 4.1 39.4 35 -10 14
22:20 1016 30 845 24.95 3.9 39 38 -9 15.8
22:25 1016 30 845 24.95 3.7 38.7 38 -9.4 15
22:30 1016 30 845 24.95 3.6 38.6 37 -9.7 14.5
22:35 1016 30 845 24.95 3.7 38.6 36 -10.2 13.6
22:40 1016 30 845 24.95 4 39.2 35 -10.1 13.8
22:45 1016 30 846 24.98 3.9 39.1 36 -9.9 14.2
22:50 1016 30 845 24.95 3.8 38.8 36 -10.1 13.9
22:55 1016 30 845 24.95 4 39.2 31 -11.8 10.8
23:00 1016 30 845 24.95 4.6 40.2 31 -11.1 12
23:05 1016 30 845 24.95 4.6 40.3 33 -10.5 13.1
23:10 1016 30 845 24.95 4.4 39.9 33 -10.4 13.3
23:15 1016 30 845 24.95 4.2 39.5 33 -10.9 12.4
23:20 1016 30 845 24.95 4.2 39.6 34 -10.2 13.7
23:25 1016 30 845 24.95 3.7 38.7 37 -9.6 14.7
23:30 1016 30 845 24.95 3.2 37.8 39 -9.3 15.3
23:35 1016 30 845 24.95 2.9 37.3 37 -10.3 13.5
23:40 1016 30 845 24.95 3.2 37.7 37 -10.1 13.8
23:45 1016 30 845 24.95 3 37.3 41 -8.9 15.9
23:50 1016 30 845 24.95 2.7 36.9 41 -9.2 15.4
23:55 1016 30 845 24.95 2.5 36.6 42 -9.2 15.4
24:00 1016 30 845 24.95 2.3 36.2 44 -8.6 16.5